Location: Iesi
(43.5167°N, 13.2333°E)
Time: 19:08:09
(UTC+00:00)

Cosmos 1703 Rocket - Pass Details

Date: 08 August 2020
Orbit: 605 x 634 km, 82.5° (Epoch: 24 September)

Event Time Altitude Azimuth Distance (km) Brightness Sun altitude
Rises 20:40:35 0° 357° (N) 2,888 7.8 -21.2°
Reaches altitude 10° 20:42:54 10° 4° (N) 1,975 6.8 -21.5°
Enters shadow 20:47:05 46° 77° (ENE) 826 3.9 -22.0°
